Regional Weather Roundup
Issued by NWS

Home | Current Version | Previous Version | Graphics & Text | Print | Product List | Glossary On
Versions: 1 2 3 4 5 6 7 8 9 10 11 12 13 14 15 16 17 18 19 20 21 22 23 24 25 26 27 28 29 30 31 32 33 34 35 36 37 38 39 40 41 42 43 44 45 46 47 48 49 50
837
ASUS43 KBIS 311302
RWRND

NORTH DAKOTA REGIONAL WEATHER ROUNDUP
NATIONAL WEATHER SERVICE BISMARCK ND
800 AM CDT WED AUG 31 2016

NOTE: "FAIR" INDICATES FEW OR NO CLOUDS BELOW 12,000 FEET WITH NO
SIGNIFICANT WEATHER AND/OR OBSTRUCTIONS TO VISIBILITY.


NDZ001>003-009>011-017-311400-
NORTHWEST NORTH DAKOTA

CITY           SKY/WX    TMP DP  RH WIND       PRES   REMARKS
WILLISTON      CLEAR     65  54  67 E8        30.11R
MINOT          CLEAR     60  54  80 E9        30.20R
MINOT AFB      MOCLDY    59  53  80 E13       30.19R
$$

NDZ018>021-031>035-040>046-311400-
SOUTHWEST NORTH DAKOTA

CITY           SKY/WX    TMP DP  RH WIND       PRES   REMARKS
BISMARCK       CLOUDY    63  58  83 E8        30.19S
DICKINSON      CLOUDY    57  57 100 SE12      30.14R FOG
GARRISON         N/A     63  61  93 SE8       30.19R
HETTINGER ARPT CLEAR     58  56  93 E7        30.16R
$$

NDZ004>008-012>016-024-026-027-054-311400-
NORTHEAST NORTH DAKOTA

CITY           SKY/WX    TMP DP  RH WIND       PRES   REMARKS
GRAND FORKS    PTSUNNY   53  50  89 CALM      30.26R
GRND FRKS AFB  PTSUNNY   53  49  89 NW5       30.28R
DEVILS LAKE    PTSUNNY   56  49  77 E6        30.28R
$$

NDZ022-023-025-028>030-036>039-047>053-311400-
SOUTHEAST NORTH DAKOTA

CITY           SKY/WX    TMP DP  RH WIND       PRES   REMARKS
FARGO          SUNNY     56  53  90 N5        30.25R
JAMESTOWN      CLOUDY    59  56  89 CALM      30.26R
$$





USA.gov is the U.S. government's official web portal to all federal, state and local government web resources and services.